Location: Newark
(38.0892°N, 27.7378°E)
Time: 02:03:55
(UTC+00:00)

N. Korean satellite - Pass Details

Date: 14 December 2019
Orbit: 454 x 507 km, 97.2° (Epoch: 23 January)

Event Time Altitude Azimuth Distance (km) Brightness Sun altitude
Rises 03:19:44 0° 25° (NNE) 2,518 10.4 -22.3°
Reaches altitude 10° 03:22:05 10° 40° (NE) 1,627 9.5 -21.9°
Maximum altitude 03:24:58 24° 96° (E) 998 8.9 -21.3°
Drops below altitude 10° 03:27:48 10° 152° (SSE) 1,597 9.7 -20.8°
Sets 03:30:05 0° 166° (SSE) 2,460 10.5 -20.3°
